Simultaneous Nadir Overpasses (SNOs) Predictions

Prediction of SNOs between AQUA and METOP-B Satellite Orbit:

Table of predicted SNOs for the next 14.0 days since TLE Epoch: 7/27/2015
Index Date (AQUA) Time (AQUA) Lat,Lon (AQUA) SZA (AQUA ) Date (METOP-B) Time (METOP-B) Lat,Lon (METOP-B) SZA (METOP-B ) Distance(km) Time Diff (sec)
1 07/28/2015 00:10:09 -73.72, -7.97 125.33 07/28/2015 00:09:07 -73.69, -7.98 125.35 3.44 62
2 07/28/2015 00:59:38 73.79, 159.51 54.76 07/28/2015 00:59:45 73.77, 159.54 54.73 2.77 7
3 07/28/2015 01:49:10 -74.13, -33.61 124.87 07/28/2015 01:50:20 -74.11, -32.30 124.95 39.99 70
4 07/30/2015 19:44:19 -73.71, 58.50 124.68 07/30/2015 19:43:27 -73.72, 58.51 124.66 1.67 52
5 07/30/2015 20:33:48 73.79,-134.04 55.42 07/30/2015 20:34:05 73.80,-133.98 55.42 2.14 17
6 07/30/2015 21:23:28 -74.53, 31.89 123.77 07/30/2015 21:24:33 -74.49, 35.07 123.94 94.73 65
7 08/02/2015 15:18:30 -73.71, 124.95 123.98 08/02/2015 15:17:49 -73.71, 124.88 123.97 2.08 41
8 08/02/2015 16:07:59 73.80, -67.61 56.13 08/02/2015 16:08:27 73.78, -67.62 56.11 2.52 28
9 08/05/2015 10:52:41 -73.73,-168.63 123.22 08/05/2015 10:52:10 -73.74,-168.64 123.20 1.17 31
10 08/05/2015 11:42:10 73.82, -1.21 56.90 08/05/2015 11:42:48 73.80, -1.15 56.87 2.85 38
11 08/08/2015 06:26:52 -73.76,-102.24 122.41 08/08/2015 06:26:31 -73.77,-102.16 122.40 2.69 21
12 08/08/2015 07:16:19 73.81, 65.29 57.65 08/08/2015 07:17:08 73.83, 65.32 57.67 2.53 49




NCC Satellite Simultaneous Nadir Overpasses (SNOs) Prediction Service
